CW5456 Hansville WA US current weather conditions

sailwx.info

Wind from 305

Air temperature 21.7° C
Dewpoint 13.8° C

Last reported at 2015-Jul-31 00:49 UTC.
Time now 2015-Jul-31 01:07 UTC

Location: N 47°55' W 122°35'.
View on Google Maps.

See reports from other nearby stations

  
Tides and Currents Weather Stations Pressure Air Temp Water Temp Dewpoint Dewpoint Depression Visibility Wind Speed Wind Dir Waves Ship Positions
date/time (UTC)wind fromknots sea level pressurealtimeterstation pressurevisibilityair tempwater tempwave heightnotes
2015-Jul-31 00:49 305 21.7
2015-Jul-31 00:44 300 0 gusting 5 21.7
2015-Jul-31 00:39 298 21.1
2015-Jul-31 00:34 299 0 gusting 5 21.1
2015-Jul-31 00:29 315 21.1
2015-Jul-31 00:24 355 0 gusting 5 21.1
2015-Jul-31 00:19 331 2 gusting 6 21.1
2015-Jul-31 00:14 336 5 gusting 6 21.1
2015-Jul-31 00:09 334 0 gusting 6 21.1
2015-Jul-31 00:04 333 0 gusting 6 21.1
2015-Jul-30 23:59 351 5 gusting 10 21.7
2015-Jul-30 23:54 281 2 gusting 10 21.7
2015-Jul-30 23:49 313 6 gusting 10 21.7
2015-Jul-30 23:44 355 6 gusting 8 21.7
2015-Jul-30 23:39 319 6 gusting 8 21.7
2015-Jul-30 23:34 294 5 gusting 8 21.7
2015-Jul-30 23:29 314 1 gusting 6 21.7
2015-Jul-30 23:24 313 6 gusting 6 21.7
2015-Jul-30 23:19 341 5 gusting 7 21.7
2015-Jul-30 23:14 324 2 gusting 7 21.7
2015-Jul-30 23:09 298 3 gusting 6 21.7
2015-Jul-30 23:04 333 2 gusting 7 21.7
2015-Jul-30 22:59 322 5 gusting 7 21.7
2015-Jul-30 22:54 319 3 gusting 6 21.7
2015-Jul-30 22:49 312 1 gusting 6 21.7
2015-Jul-30 22:44 328 0 gusting 6 21.7
2015-Jul-30 22:39 342 1 gusting 6 21.7
2015-Jul-30 22:34 314 0 gusting 5 21.1
2015-Jul-30 22:29 331 2 gusting 3 21.1
2015-Jul-30 22:24 323 0 gusting 3 21.1
2015-Jul-30 22:19 292 0 gusting 6 20.6
2015-Jul-30 22:14 345 20.6
2015-Jul-30 22:09 318 1 gusting 6 20.6
2015-Jul-30 22:04 338 20.0
2015-Jul-30 21:59 317 1 gusting 6 20.0
2015-Jul-30 21:54 350 2 gusting 6 20.0
2015-Jul-30 21:49 321 5 gusting 8 20.0
2015-Jul-30 21:44 321 3 gusting 8 20.0
2015-Jul-30 21:39 317 3 gusting 7 19.4
2015-Jul-30 21:34 298 6 gusting 7 19.4
2015-Jul-30 21:29 298 1 gusting 11 19.4
2015-Jul-30 21:24 312 3 gusting 12 19.4
2015-Jul-30 21:19 009 6 gusting 12 18.9
2015-Jul-30 21:14 339 10 gusting 13 19.4
2015-Jul-30 21:09 341 9 gusting 13 19.4
2015-Jul-30 21:04 331 8 gusting 15 19.4
2015-Jul-30 20:59 341 11 gusting 15 19.4
2015-Jul-30 20:54 342 11 gusting 15 19.4
2015-Jul-30 20:49 340 14 gusting 14 19.4
2015-Jul-30 20:39 309 19.4
2015-Jul-30 20:34 298 1 gusting 7 19.4
2015-Jul-30 20:29 355 3 gusting 7 20.0
2015-Jul-30 20:24 306 1 gusting 7 20.0
2015-Jul-30 20:19 340 1 gusting 8 20.0
2015-Jul-30 20:14 307 2 gusting 10 20.0
2015-Jul-30 20:09 240 1 gusting 16 20.0
2015-Jul-30 20:04 322 3 gusting 16 19.4
2015-Jul-30 19:59 313 6 gusting 10 19.4
2015-Jul-30 19:54 311 5 gusting 11 19.4
2015-Jul-30 19:49 313 3 gusting 11 18.9
2015-Jul-30 19:44 351 8 gusting 9 18.9
2015-Jul-30 19:39 318 3 gusting 9 18.9
2015-Jul-30 19:34 360 6 gusting 9 18.3
2015-Jul-30 19:29 348 2 gusting 7 18.3
2015-Jul-30 19:24 348 2 gusting 8 18.3
2015-Jul-30 19:19 349 5 gusting 8 18.3
2015-Jul-30 19:14 331 6 gusting 11 18.3
2015-Jul-30 19:09 316 6 gusting 11 18.3
2015-Jul-30 19:04 331 6 gusting 7 18.9
2015-Jul-30 18:59 334 3 gusting 6 18.9
2015-Jul-30 18:54 350 2 gusting 7 18.9
2015-Jul-30 18:49 332 6 gusting 7 18.9
2015-Jul-30 18:44 331 5 gusting 10 18.9
2015-Jul-30 18:39 280 0 gusting 12 18.9
2015-Jul-30 18:34 319 2 gusting 14 18.9
2015-Jul-30 18:29 329 11 gusting 14 18.9
2015-Jul-30 18:24 333 9 gusting 13 18.9
2015-Jul-30 18:19 307 3 gusting 12 18.9
2015-Jul-30 18:14 344 6 gusting 11 18.9
2015-Jul-30 18:09 292 1 gusting 12 18.3
2015-Jul-30 18:04 320 6 gusting 12 18.3
2015-Jul-30 17:59 355 7 gusting 11 18.3
2015-Jul-30 17:54 351 7 gusting 11 18.3
2015-Jul-30 17:49 360 7 gusting 10 18.3
2015-Jul-30 17:44 342 6 gusting 8 18.3
2015-Jul-30 17:39 036 5 gusting 5 18.3
2015-Jul-30 17:34 009 0 gusting 6 18.3
2015-Jul-30 17:29 342 2 gusting 6 18.3
2015-Jul-30 17:24 342 18.3
2015-Jul-30 17:19 341 0 gusting 7 17.8
2015-Jul-30 17:14 009 2 gusting 7 17.8
2015-Jul-30 17:09 334 2 gusting 7 17.8
2015-Jul-30 17:04 355 0 gusting 7 17.2
2015-Jul-30 16:59 323 3 gusting 8 17.2
2015-Jul-30 16:54 317 3 gusting 8 17.2
2015-Jul-30 16:49 337 6 gusting 8 17.2
2015-Jul-30 16:44 350 5 gusting 8 17.2
2015-Jul-30 16:39 329 2 gusting 6 17.2
2015-Jul-30 16:34 325 3 gusting 6 17.2
2015-Jul-30 16:29 319 5 gusting 6 17.2
2015-Jul-30 16:24 340 2 gusting 5 17.2
2015-Jul-30 16:14 337 0 gusting 5 17.2
2015-Jul-30 16:09 355 0 gusting 7 17.2
2015-Jul-30 16:04 355 3 gusting 7 17.2
2015-Jul-30 15:59 350 3 gusting 6 17.2
2015-Jul-30 15:54 355 3 gusting 6 16.7
2015-Jul-30 15:49 355 2 gusting 6 16.7
2015-Jul-30 15:44 360 6 gusting 6 16.7
2015-Jul-30 15:39 360 3 gusting 7 16.1
2015-Jul-30 15:34 346 6 gusting 7 16.1
2015-Jul-30 15:29 360 5 gusting 5 16.1
2015-Jul-30 15:24 360 1 gusting 3 16.1
2015-Jul-30 15:19 360 15.6
2015-Jul-30 15:14 005 0 gusting 5 15.6
2015-Jul-30 15:09 360 2 gusting 6 15.6
2015-Jul-30 15:04 360 3 gusting 6 15.6
2015-Jul-30 14:59 360 3 gusting 8 15.6
2015-Jul-30 14:54 350 5 gusting 8 15.6
2015-Jul-30 14:49 342 8 gusting 8 15.6
2015-Jul-30 14:44 355 5 gusting 7 16.1
2015-Jul-30 14:39 351 3 gusting 8 15.6
2015-Jul-30 14:34 336 7 gusting 8 15.6
2015-Jul-30 14:29 324 7 gusting 7 15.6
2015-Jul-30 14:24 344 2 gusting 7 15.6
2015-Jul-30 14:19 338 6 gusting 6 16.1
2015-Jul-30 14:14 348 6 gusting 6 16.1
2015-Jul-30 14:09 331 6 gusting 7 16.1
2015-Jul-30 14:04 355 5 gusting 7 16.1
2015-Jul-30 13:59 329 6 gusting 7 16.1
2015-Jul-30 13:54 335 5 gusting 6 16.1
2015-Jul-30 13:49 336 5 gusting 6 16.1
2015-Jul-30 13:44 348 5 gusting 6 16.1
2015-Jul-30 13:39 337 3 gusting 6 16.1
2015-Jul-30 13:34 337 6 gusting 6 15.6
2015-Jul-30 13:29 341 6 gusting 6 15.0
2015-Jul-30 13:24 338 3 gusting 6 15.0
2015-Jul-30 13:19 338 15.0
2015-Jul-30 13:14 331 3 gusting 6 14.4
2015-Jul-30 13:09 327 3 gusting 6 14.4
2015-Jul-30 13:04 321 1 gusting 5 14.4
2015-Jul-30 12:59 346 0 gusting 6 14.4
2015-Jul-30 12:54 346 1 gusting 6 14.4
2015-Jul-30 12:49 355 6 gusting 6 14.4
2015-Jul-30 12:44 333 5 gusting 7 14.4
2015-Jul-30 12:39 340 1 gusting 7 14.4
2015-Jul-30 12:34 330 3 gusting 6 14.4
2015-Jul-30 12:29 335 1 gusting 5 15.0
2015-Jul-30 12:24 345 15.0
2015-Jul-30 12:19 346 0 gusting 8 15.0
2015-Jul-30 12:14 344 6 gusting 10 15.0
2015-Jul-30 12:09 329 8 gusting 10 15.0
2015-Jul-30 12:04 337 6 gusting 7 15.0
2015-Jul-30 11:59 333 15.0
2015-Jul-30 11:54 338 3 gusting 6 15.0
2015-Jul-30 11:49 336 6 gusting 6 15.0
2015-Jul-30 11:44 355 2 gusting 5 15.0
2015-Jul-30 11:39 355 0 gusting 5 15.0
2015-Jul-30 11:34 355 3 gusting 5 15.0
2015-Jul-30 11:29 355 2 gusting 5 15.0
2015-Jul-30 11:24 355 2 gusting 6 15.0
2015-Jul-30 11:19 355 5 gusting 6 15.0
2015-Jul-30 11:14 360 2 gusting 6 15.0
2015-Jul-30 11:09 346 1 gusting 6 15.0
2015-Jul-30 11:04 340 6 gusting 6 14.4
2015-Jul-30 10:59 360 3 gusting 6 14.4
2015-Jul-30 10:54 005 15.0
2015-Jul-30 10:49 340 2 gusting 7 15.0
2015-Jul-30 10:44 339 5 gusting 6 15.0
2015-Jul-30 10:39 340 5 gusting 8 15.0
2015-Jul-30 10:34 346 3 gusting 8 15.0
2015-Jul-30 10:29 326 3 gusting 8 14.4
2015-Jul-30 10:24 342 3 gusting 6 14.4
2015-Jul-30 10:19 329 1 gusting 6 14.4
2015-Jul-30 10:14 329 0 gusting 3 14.4
2015-Jul-30 10:09 329 13.9
2015-Jul-30 10:04 329 13.9
2015-Jul-30 09:59 329 14.4
2015-Jul-30 09:54 329 14.4
2015-Jul-30 09:49 329 0 gusting 0 14.4
2015-Jul-30 09:44 329 14.4
2015-Jul-30 09:39 329 14.4
2015-Jul-30 09:34 329 14.4
2015-Jul-30 09:29 329 0 gusting 1 14.4
2015-Jul-30 09:24 329 14.4
2015-Jul-30 09:19 329 14.4
2015-Jul-30 09:14 329 15.0
2015-Jul-30 09:09 329 15.0
2015-Jul-30 09:04 329 15.0
2015-Jul-30 08:59 329 15.0
2015-Jul-30 08:54 329 15.0
2015-Jul-30 08:49 329 15.0
2015-Jul-30 08:44 329 15.0
2015-Jul-30 08:39 329 1 gusting 1 15.0
2015-Jul-30 08:34 329 15.0
2015-Jul-30 08:29 329 15.0
2015-Jul-30 08:24 329 15.0
2015-Jul-30 08:19 329 1 gusting 2 15.0
2015-Jul-30 08:14 329 15.0
2015-Jul-30 08:09 329 15.6
2015-Jul-30 08:04 329 0 gusting 0 15.6
2015-Jul-30 07:59 329 15.6
2015-Jul-30 07:54 329 16.1
2015-Jul-30 07:49 329 16.1
2015-Jul-30 07:44 329 16.1
2015-Jul-30 07:39 329 16.7
2015-Jul-30 07:34 329 16.7
2015-Jul-30 07:29 329 3 gusting 6 16.7
2015-Jul-30 07:24 338 6 gusting 6 16.7
2015-Jul-30 07:19 330 5 gusting 7 16.7
2015-Jul-30 07:14 334 6 gusting 7 16.7
2015-Jul-30 07:09 327 6 gusting 7 16.7
2015-Jul-30 07:04 329 6 gusting 6 16.7
2015-Jul-30 06:59 327 5 gusting 6 16.7
2015-Jul-30 06:54 334 0 gusting 6 16.7
2015-Jul-30 06:49 334 3 gusting 6 16.7
2015-Jul-30 06:44 331 3 gusting 6 16.7
2015-Jul-30 06:39 323 0 gusting 6 16.7
2015-Jul-30 06:34 326 1 gusting 6 16.7
2015-Jul-30 06:29 321 1 gusting 5 16.7
2015-Jul-30 06:24 327 3 gusting 6 16.7
2015-Jul-30 06:19 329 1 gusting 6 16.7
2015-Jul-30 06:14 333 5 gusting 6 16.7
2015-Jul-30 06:09 329 3 gusting 6 16.7
2015-Jul-30 06:04 351 5 gusting 6 16.7
2015-Jul-30 05:59 327 0 gusting 6 16.7
2015-Jul-30 05:54 325 6 gusting 6 16.7
2015-Jul-30 05:49 331 5 gusting 6 16.7
2015-Jul-30 05:44 336 6 gusting 6 16.7
2015-Jul-30 05:39 334 0 gusting 5 16.7
2015-Jul-30 05:34 333 16.7
2015-Jul-30 05:29 336 2 gusting 6 16.7
2015-Jul-30 05:24 305 5 gusting 6 16.7
2015-Jul-30 05:19 325 2 gusting 3 16.7
2015-Jul-30 05:14 329 1 gusting 3 16.7
2015-Jul-30 05:09 335 0 gusting 3 16.7
2015-Jul-30 05:04 336 0 gusting 3 16.1
2015-Jul-30 04:59 338 16.1
2015-Jul-30 04:54 323 16.1
2015-Jul-30 04:49 323 0 gusting 5 16.1
2015-Jul-30 04:44 329 0 gusting 5 16.1
2015-Jul-30 04:39 350 16.1
2015-Jul-30 04:34 350 0 gusting 3 16.1
2015-Jul-30 04:29 349 2 gusting 6 16.7
2015-Jul-30 04:24 348 16.7
2015-Jul-30 04:19 331 2 gusting 2 16.7
2015-Jul-30 04:14 334 1 gusting 3 16.7
2015-Jul-30 04:09 334 0 gusting 3 16.7
2015-Jul-30 04:04 336 1 gusting 1 17.2
2015-Jul-30 03:59 340 17.2
2015-Jul-30 03:54 340 17.2
2015-Jul-30 03:49 333 17.2
2015-Jul-30 03:44 333 7 gusting 7 17.2
2015-Jul-30 03:39 342 2 gusting 6 17.8
2015-Jul-30 03:34 335 3 gusting 6 17.8
2015-Jul-30 03:29 341 3 gusting 6 17.8
2015-Jul-30 03:24 321 2 gusting 6 18.3
2015-Jul-30 03:19 331 0 gusting 6 18.3
2015-Jul-30 03:14 338 1 gusting 6 18.3
2015-Jul-30 03:09 340 2 gusting 6 18.9
2015-Jul-30 03:04 338 1 gusting 6 18.9
2015-Jul-30 02:59 350 5 gusting 6 18.9
2015-Jul-30 02:54 342 1 gusting 6 19.4
2015-Jul-30 02:49 344 2 gusting 8 19.4
2015-Jul-30 02:44 360 3 gusting 8 19.4
2015-Jul-30 02:39 012 6 gusting 8 19.4
2015-Jul-30 02:34 360 3 gusting 8 19.4
2015-Jul-30 02:29 031 5 gusting 8 19.4
2015-Jul-30 02:24 338 7 gusting 8 20.0
2015-Jul-30 02:19 355 5 gusting 7 20.0
2015-Jul-30 02:14 330 0 gusting 5 20.0
2015-Jul-30 02:09 329 20.6
2015-Jul-30 02:04 333 20.6
2015-Jul-30 01:59 334 3 gusting 3 20.6
2015-Jul-30 01:54 304 3 gusting 5 20.6
2015-Jul-30 01:49 319 3 gusting 6 20.6
2015-Jul-30 01:44 339 5 gusting 6 20.0
2015-Jul-30 01:39 334 3 gusting 6 20.0
2015-Jul-30 01:34 336 1 gusting 5 20.0
2015-Jul-30 01:29 319 20.0
2015-Jul-30 01:24 223 1 gusting 5 20.0
2015-Jul-30 01:19 323 2 gusting 6 20.0
2015-Jul-30 01:14 302 3 gusting 7 20.0
2015-Jul-30 01:09 330 0 gusting 8 20.0
2015-Jul-30 01:04 360 5 gusting 8 20.0
2015-Jul-30 00:59 336 1 gusting 6 20.6
2015-Jul-30 00:54 307 20.6
2015-Jul-30 00:49 340 2 gusting 6 20.6
2015-Jul-30 00:44 067 20.6
2015-Jul-30 00:39 086 20.0
2015-Jul-30 00:34 344 3 gusting 6 20.0
2015-Jul-30 00:29 336 2 gusting 7 20.0
2015-Jul-30 00:24 326 0 gusting 8 20.0
2015-Jul-30 00:19 279 20.0
2015-Jul-30 00:14 323 6 gusting 10 20.0
2015-Jul-30 00:09 313 6 gusting 10 20.0
2015-Jul-30 00:04 323 2 gusting 10 20.0
2015-Jul-29 23:59 346 6 gusting 8 20.0
2015-Jul-29 23:54 323 2 gusting 10 20.0
2015-Jul-29 23:49 323 8 gusting 12 20.0
2015-Jul-29 23:44 337 3 gusting 12 20.0
2015-Jul-29 23:39 011 2 gusting 12 19.4
2015-Jul-29 23:34 350 3 gusting 12 19.4
2015-Jul-29 23:29 327 5 gusting 8 19.4
2015-Jul-29 23:24 275 3 gusting 7 19.4
2015-Jul-29 23:19 342 3 gusting 7 19.4
2015-Jul-29 23:14 311 1 gusting 5 19.4
2015-Jul-29 23:09 311 19.4
2015-Jul-29 23:04 252 19.4
2015-Jul-29 22:59 284 2 gusting 11 18.9
2015-Jul-29 22:54 349 7 gusting 9 19.4
2015-Jul-29 22:49 355 5 gusting 9 18.9
2015-Jul-29 22:44 322 6 gusting 9 19.4
2015-Jul-29 22:39 333 0 gusting 9 18.9
2015-Jul-29 22:34 340 6 gusting 8 19.4
2015-Jul-29 22:29 360 6 gusting 8 19.4
2015-Jul-29 22:24 355 3 gusting 7 20.0
2015-Jul-29 22:19 329 3 gusting 6 20.6
2015-Jul-29 22:14 314 2 gusting 6 20.6
2015-Jul-29 22:09 355 1 gusting 5 20.6
2015-Jul-29 22:04 005 1 gusting 2 21.1
2015-Jul-29 21:59 360 0 gusting 3 21.1
2015-Jul-29 21:54 355 20.6
2015-Jul-29 21:49 355 0 gusting 3 20.6
2015-Jul-29 21:44 355 0 gusting 3 20.0
2015-Jul-29 21:39 005 1 gusting 6 20.0
2015-Jul-29 21:34 327 1 gusting 6 19.4
2015-Jul-29 21:29 330 2 gusting 7 19.4
2015-Jul-29 21:24 338 5 gusting 7 18.9
2015-Jul-29 21:19 316 6 gusting 7 18.9
2015-Jul-29 21:14 355 6 gusting 6 18.9
2015-Jul-29 21:09 346 2 gusting 5 18.9
2015-Jul-29 21:04 351 2 gusting 6 18.9
2015-Jul-29 20:59 011 0 gusting 6 18.9
2015-Jul-29 20:54 032 18.9
2015-Jul-29 20:49 070 1 gusting 6 18.9
2015-Jul-29 20:44 009 1 gusting 8 18.3
2015-Jul-29 20:39 022 6 gusting 9 18.3
2015-Jul-29 20:34 012 6 gusting 9 18.3
2015-Jul-29 20:29 010 6 gusting 8 18.3
2015-Jul-29 20:24 005 1 gusting 2 17.8
2015-Jul-29 20:19 005 0 gusting 2 17.8
2015-Jul-29 20:14 348 1 gusting 3 17.2
2015-Jul-29 20:09 348 2 gusting 5 17.2
2015-Jul-29 20:04 337 2 gusting 5 17.2
2015-Jul-29 19:59 355 2 gusting 3 17.2
2015-Jul-29 19:54 355 2 gusting 3 17.2
2015-Jul-29 19:49 355 3 gusting 6 17.2
2015-Jul-29 19:44 355 3 gusting 6 16.7
2015-Jul-29 19:39 355 3 gusting 7 16.7
2015-Jul-29 19:34 348 6 gusting 7 16.7
2015-Jul-29 19:29 336 3 gusting 5 17.2
2015-Jul-29 19:24 313 3 gusting 5 17.2
2015-Jul-29 19:19 337 2 gusting 5 16.7
2015-Jul-29 19:14 337 0 gusting 5 16.7
2015-Jul-29 19:09 337 2 gusting 6 16.7
2015-Jul-29 19:04 355 3 gusting 6 17.2
2015-Jul-29 18:59 345 3 gusting 6 17.2
2015-Jul-29 18:54 355 3 gusting 5 16.7
2015-Jul-29 18:49 340 3 gusting 6 16.7
2015-Jul-29 18:44 336 2 gusting 6 16.1
2015-Jul-29 18:39 343 6 gusting 6 16.1
2015-Jul-29 18:34 321 3 gusting 7 16.1
2015-Jul-29 18:29 340 5 gusting 8 15.6
2015-Jul-29 18:24 355 6 gusting 8 15.6
2015-Jul-29 18:19 345 6 gusting 8 15.6
2015-Jul-29 18:14 338 6 gusting 8 15.6
2015-Jul-29 18:09 355 6 gusting 6 15.6
2015-Jul-29 18:04 355 3 gusting 6 15.6
2015-Jul-29 17:59 355 5 gusting 6 15.6
2015-Jul-29 17:54 355 2 gusting 6 15.6
2015-Jul-29 17:49 355 3 gusting 5 15.0
2015-Jul-29 17:44 355 2 gusting 5 15.0
2015-Jul-29 17:39 355 2 gusting 5 15.0
2015-Jul-29 17:34 355 1 gusting 5 15.0
2015-Jul-29 17:29 355 2 gusting 5 15.0
2015-Jul-29 17:24 355 2 gusting 5 15.0
2015-Jul-29 17:19 355 3 gusting 5 15.0
2015-Jul-29 17:14 355 1 gusting 5 15.0
2015-Jul-29 17:09 355 1 gusting 5 15.0
2015-Jul-29 17:04 355 15.0
2015-Jul-29 16:59 355 2 gusting 5 15.0
2015-Jul-29 16:54 355 1 gusting 5 15.0
2015-Jul-29 16:49 355 2 gusting 5 15.0
2015-Jul-29 16:44 355 2 gusting 3 14.4
2015-Jul-29 16:39 355 2 gusting 2 14.4
2015-Jul-29 16:34 355 1 gusting 2 14.4
2015-Jul-29 16:29 355 2 gusting 3 14.4
2015-Jul-29 16:24 355 1 gusting 3 14.4
2015-Jul-29 16:19 355 1 gusting 3 14.4
2015-Jul-29 16:14 355 1 gusting 3 13.9
2015-Jul-29 16:09 355 1 gusting 3 13.9
2015-Jul-29 16:04 355 1 gusting 3 13.9
2015-Jul-29 15:59 355 1 gusting 6 13.9
2015-Jul-29 15:54 355 1 gusting 6 13.9
2015-Jul-29 15:49 355 5 gusting 6 13.9
2015-Jul-29 15:44 355 3 gusting 6 13.9
2015-Jul-29 15:39 348 5 gusting 6 13.9
2015-Jul-29 15:34 355 2 gusting 6 14.4
2015-Jul-29 15:29 355 5 gusting 6 14.4
2015-Jul-29 15:24 355 3 gusting 6 14.4
2015-Jul-29 15:19 350 3 gusting 6 14.4
2015-Jul-29 15:14 350 3 gusting 6 14.4
2015-Jul-29 15:09 355 2 gusting 6 14.4
2015-Jul-29 15:04 355 3 gusting 6 13.9
2015-Jul-29 14:59 355 2 gusting 6 13.9
2015-Jul-29 14:54 350 3 gusting 6 13.9
2015-Jul-29 14:49 343 2 gusting 6 13.9
2015-Jul-29 14:44 349 2 gusting 6 14.4
2015-Jul-29 14:39 348 3 gusting 6 14.4
2015-Jul-29 14:34 336 2 gusting 3 13.9
2015-Jul-29 14:29 336 1 gusting 3 13.9
2015-Jul-29 14:24 336 1 gusting 5 14.4
2015-Jul-29 14:19 334 2 gusting 5 14.4
2015-Jul-29 14:14 331 1 gusting 5 14.4
2015-Jul-29 14:09 331 0 gusting 3 13.9
2015-Jul-29 14:04 331 2 gusting 3 13.9
2015-Jul-29 13:59 329 2 gusting 3 13.9
2015-Jul-29 13:54 279 2 gusting 2 13.9
2015-Jul-29 13:49 201 0 gusting 0 13.3
2015-Jul-29 13:44 201 13.3
2015-Jul-29 13:39 200 13.3
2015-Jul-29 13:34 201 13.3
2015-Jul-29 13:29 201 12.8
2015-Jul-29 13:24 200 12.8
2015-Jul-29 13:19 200 12.8
2015-Jul-29 13:14 201 12.8
2015-Jul-29 13:09 201 12.8
2015-Jul-29 13:04 201 12.8
2015-Jul-29 12:59 201 12.8
2015-Jul-29 12:54 200 12.8
2015-Jul-29 12:49 200 12.8
2015-Jul-29 12:44 200 12.8
2015-Jul-29 12:39 201 12.8
2015-Jul-29 12:34 201 12.8
2015-Jul-29 12:29 201 0 gusting 2 12.8
2015-Jul-29 12:24 201 1 gusting 1 12.8
2015-Jul-29 12:19 200 12.8
2015-Jul-29 12:14 200 0 gusting 5 12.8
2015-Jul-29 12:09 200 1 gusting 5 12.8
2015-Jul-29 12:04 200 2 gusting 3 12.8
2015-Jul-29 11:59 201 2 gusting 3 12.8
2015-Jul-29 11:54 201 2 gusting 2 12.8
2015-Jul-29 11:49 201 0 gusting 3 12.8
2015-Jul-29 11:44 201 12.8
2015-Jul-29 11:39 201 2 gusting 6 12.8
2015-Jul-29 11:34 201 2 gusting 6 12.8
2015-Jul-29 11:29 202 3 gusting 6 12.8
2015-Jul-29 11:24 203 5 gusting 5 12.8
2015-Jul-29 11:19 311 3 gusting 3 12.8
2015-Jul-29 11:14 329 2 gusting 3 12.8
2015-Jul-29 11:09 329 1 gusting 2 12.8
2015-Jul-29 11:04 329 2 gusting 2 12.8
2015-Jul-29 10:59 329 0 gusting 1 12.8
2015-Jul-29 10:54 329 0 gusting 1 12.8
2015-Jul-29 10:49 329 0 gusting 1 12.8
2015-Jul-29 10:44 329 0 gusting 1 12.8
2015-Jul-29 10:39 329 1 gusting 1 12.8
2015-Jul-29 10:34 329 1 gusting 1 12.8
2015-Jul-29 10:29 329 0 gusting 1 13.3
2015-Jul-29 10:24 329 0 gusting 1 13.3
2015-Jul-29 10:19 329 0 gusting 1 13.3
2015-Jul-29 10:14 329 0 gusting 1 13.3
2015-Jul-29 10:09 329 1 gusting 1 13.3
2015-Jul-29 10:04 329 13.3
2015-Jul-29 09:59 329 1 gusting 1 13.3
2015-Jul-29 09:54 329 1 gusting 1 13.3
2015-Jul-29 09:49 329 0 gusting 1 13.3
2015-Jul-29 09:44 329 1 gusting 1 13.3
2015-Jul-29 09:39 329 1 gusting 1 13.3
2015-Jul-29 09:34 329 0 gusting 1 13.3
2015-Jul-29 09:29 329 1 gusting 1 13.3
2015-Jul-29 09:24 329 1 gusting 1 13.3
2015-Jul-29 09:19 329 13.3
2015-Jul-29 09:14 329 13.3
2015-Jul-29 09:09 329 13.3
2015-Jul-29 09:04 329 13.3
2015-Jul-29 08:59 329 13.3
2015-Jul-29 08:54 329 13.3
2015-Jul-29 08:49 329 13.3
2015-Jul-29 08:44 329 13.3
2015-Jul-29 08:39 329 0 gusting 2 13.3
2015-Jul-29 08:34 329 2 gusting 3 13.3
2015-Jul-29 08:29 329 1 gusting 3 13.3
2015-Jul-29 08:24 330 1 gusting 3 13.3
2015-Jul-29 08:19 330 1 gusting 2 13.9
2015-Jul-29 08:14 330 0 gusting 1 13.9
2015-Jul-29 08:09 330 0 gusting 0 13.9
2015-Jul-29 08:04 330 13.9
2015-Jul-29 07:59 330 0 gusting 1 13.9
2015-Jul-29 07:54 330 13.9
2015-Jul-29 07:49 330 13.9
2015-Jul-29 07:44 330 13.9
2015-Jul-29 07:39 330 13.9
2015-Jul-29 07:34 330 1 gusting 3 13.9
2015-Jul-29 07:29 330 1 gusting 3 13.9
2015-Jul-29 07:24 330 2 gusting 2 13.9
2015-Jul-29 07:19 330 13.9
2015-Jul-29 07:14 330 1 gusting 1 13.9
2015-Jul-29 07:09 330 13.9
2015-Jul-29 07:04 330 14.4
2015-Jul-29 06:59 330 14.4
2015-Jul-29 06:54 330 14.4
2015-Jul-29 06:49 330 14.4
2015-Jul-29 06:44 330 14.4
2015-Jul-29 06:39 330 14.4
2015-Jul-29 06:34 330 14.4
2015-Jul-29 06:29 330 14.4
2015-Jul-29 06:24 330 14.4
2015-Jul-29 06:19 330 14.4
2015-Jul-29 06:14 330 14.4
2015-Jul-29 06:09 330 14.4
2015-Jul-29 06:04 330 0 gusting 3 14.4
2015-Jul-29 05:59 330 0 gusting 3 14.4
2015-Jul-29 05:54 330 14.4
2015-Jul-29 05:49 330 14.4
2015-Jul-29 05:44 330 14.4
2015-Jul-29 05:39 330 14.4
2015-Jul-29 05:34 330 14.4
2015-Jul-29 05:29 330 14.4
2015-Jul-29 05:24 330 15.0
2015-Jul-29 05:19 330 15.0
2015-Jul-29 05:14 330 15.0
2015-Jul-29 05:09 330 15.0
2015-Jul-29 05:04 330 15.0
2015-Jul-29 04:59 330 1 gusting 5 15.0
2015-Jul-29 04:54 329 3 gusting 6 15.0
2015-Jul-29 04:49 334 0 gusting 6 15.6
2015-Jul-29 04:44 326 2 gusting 5 15.6
2015-Jul-29 04:39 325 0 gusting 6 15.6
2015-Jul-29 04:34 315 3 gusting 6 15.6
2015-Jul-29 04:29 333 5 gusting 6 15.6
2015-Jul-29 04:24 331 15.6
2015-Jul-29 04:19 334 5 gusting 6 16.1
2015-Jul-29 04:14 325 2 gusting 7 16.1
2015-Jul-29 04:09 355 6 gusting 8 16.1
2015-Jul-29 04:04 360 6 gusting 8 16.1
2015-Jul-29 03:59 309 0 gusting 1 16.1
2015-Jul-29 03:54 309 0 gusting 1 16.1
2015-Jul-29 03:49 309 0 gusting 2 16.1
2015-Jul-29 03:44 309 16.1
2015-Jul-29 03:39 309 1 gusting 6 16.1
2015-Jul-29 03:34 304 1 gusting 5 16.1
2015-Jul-29 03:29 331 16.1
2015-Jul-29 03:24 331 1 gusting 6 16.1
2015-Jul-29 03:19 005 3 gusting 6 16.1
2015-Jul-29 03:14 015 1 gusting 6 15.6
2015-Jul-29 03:09 069 1 gusting 5 15.6
2015-Jul-29 03:04 337 0 gusting 8 15.6
2015-Jul-29 02:59 336 2 gusting 9 15.6
2015-Jul-29 02:54 320 6 gusting 9 15.6
2015-Jul-29 02:49 330 0 gusting 15 15.6
2015-Jul-29 02:44 319 1 gusting 15 15.6
2015-Jul-29 02:39 331 12 gusting 14 15.6
2015-Jul-29 02:34 341 7 gusting 16 16.1
2015-Jul-29 02:29 337 11 gusting 17 16.1
2015-Jul-29 02:24 337 8 gusting 17 16.1
2015-Jul-29 02:19 360 9 gusting 15 16.1
2015-Jul-29 02:14 355 10 gusting 15 16.1
2015-Jul-29 02:09 344 10 gusting 14 16.1
2015-Jul-29 02:04 344 9 gusting 13 16.1
2015-Jul-29 01:59 348 9 gusting 13 16.1
2015-Jul-29 01:54 355 9 gusting 13 16.1
2015-Jul-29 01:49 338 11 gusting 16 16.1
2015-Jul-29 01:44 330 10 gusting 16 16.1
2015-Jul-29 01:39 329 11 gusting 13 16.1
2015-Jul-29 01:34 340 10 gusting 13 16.1
2015-Jul-29 01:29 336 10 gusting 13 16.1
2015-Jul-29 01:24 317 10 gusting 13 16.1
2015-Jul-29 01:19 334 7 gusting 12 16.1
2015-Jul-29 01:14 316 9 gusting 12 16.7
2015-Jul-29 01:09 348 6 gusting 11 16.7
2015-Jul-29 01:04 319 7 gusting 14 16.7